Theta_e
313 317 317 313 312 312 313 314 315 316 312 313 318 317 316 313 311 312 312 313 313 312 311 310 310 309 309 310 309 311 310 310 310 312 316 317 317 317 317 317 316 316 313 316
315 317 311 310 310 312 313 315 319 317 312 313 316 316 315 313 313 313 313 313 313 313 313 313 313 314 313 312 309 309 309 309 309 309 310 310 309 309 310 311 315 316 316 313
319 313 309 310 311 313 315 316 316 314 314 315 314 317 314 313 312 312 312 312 311 311 310 308 310 312 312 310 309 309 309 309 309 310 310 311 314 315 316 315 312 311 312 315
313 309 310 310 312 312 317 310 311 314 315 317 314 316 316 314 312 311 311 311 308 307 307 306 308 307 306 305 306 306 306 306 306 306 306 307 313 313 312 310 307 306 308 309
315 311 310 311 312 310 313 310 312 313 314 315 316 316 318 314 313 311 311 309 308 307 307 306 306 305 304 304 305 305 305 305 305 305 305 305 305 305 306 307 305 306 306 305
311 308 308 309 308 309 309 312 313 313 315 320 318 317 319 314 314 313 311 309 307 306 306 306 306 307 305 305 305 305 306 305 305 305 304 303 303 303 303 302 303 302 303 303
312 311 308 308 311 310 312 316 325 325 326 325 314 315 316 313 309 312 310 308 307 307 308 308 308 307 306 305 305 305 304 304 303 302 301 301 300 300 300 300 300 300 300 300
318 321 311 307 310 312 314 314 321 326 321 319 313 315 316 311 309 309 309 309 308 308 308 308 307 306 305 305 304 303 302 301 300 300 300 300 300 299 299 299 299 299 299 299
314 314 307 307 307 309 314 316 312 315 313 314 315 315 311 309 309 309 309 309 309 307 307 307 306 305 305 304 302 301 300 300 300 299 299 299 299 299 299 299 299 299 299 299
312 315 309 307 308 308 311 310 316 317 320 317 316 315 316 312 310 310 309 309 308 307 306 306 305 305 304 303 302 301 300 299 299 298 298 298 298 298 297 297 297 297 296 296
310 312 312 309 311 314 311 312 311 313 314 317 317 315 313 312 311 310 310 309 307 306 306 305 305 304 303 303 302 300 299 298 298 298 297 297 296 296 296 296 296 296 296 296
309 313 316 314 308 307 309 312 313 314 315 312 313 314 309 308 309 307 309 309 307 306 306 306 305 305 303 302 301 301 300 299 299 298 297 296 295 295 296 296 296 296 295 295
309 314 317 314 310 307 309 310 310 312 311 312 313 313 308 308 308 307 307 307 306 306 306 305 305 304 303 302 301 300 300 300 300 299 297 296 296 297 297 296 296 295 295 295
308 312 313 314 313 311 310 310 310 311 316 312 312 311 311 310 310 308 306 306 305 305 304 303 303 303 302 301 301 300 300 300 299 298 297 297 297 297 297 296 295 294 294 294
309 313 311 311 311 310 310 310 310 310 310 312 310 309 309 309 307 305 304 303 304 304 304 303 302 302 302 302 302 301 300 299 299 298 298 297 297 297 296 295 294 292 292 292
307 311 306 308 309 309 309 308 309 310 309 310 310 309 306 304 303 302 301 301 301 303 302 301 300 300 300 302 302 301 300 300 299 298 297 297 296 296 295 293 292 292 291 291
309 311 309 308 307 306 307 306 306 306 306 307 307 306 304 303 301 300 299 298 299 300 299 298 296 296 295 295 296 298 300 299 298 297 297 296 295 295 294 293 292 291 291 291
309 309 309 309 306 306 305 303 303 304 304 305 304 303 301 300 298 297 297 297 297 296 294 294 294 294 294 294 296 298 297 297 297 296 295 295 294 294 292 291 291 290 291 291
306 308 307 307 306 305 304 303 303 303 304 301 302 300 298 297 295 297 297 295 294 294 293 293 293 294 294 294 294 294 295 296 296 295 294 293 292 291 291 291 291 291 291 291
302 304 307 306 306 303 303 300 300 301 302 299 297 297 296 295 295 296 293 293 293 293 293 294 294 294 294 294 294 295 295 295 295 293 291 291 291 291 291 291 291 290 290 290
303 304 306 306 305 303 301 299 299 300 299 297 295 295 294 294 293 292 293 293 293 293 294 293 293 294 293 294 294 294 295 294 292 292 292 291 290 290 290 291 290 290 289 290
303 304 303 303 304 304 298 298 298 297 295 294 294 293 293 292 292 292 292 293 293 293 292 292 292 292 292 293 293 293 293 292 292 292 291 290 290 289 290 290 289 289 289 289
300 300 300 300 300 299 297 296 295 294 293 293 293 292 292 292 292 292 292 292 292 291 290 290 290 290 291 291 292 292 292 291 290 290 290 289 289 289 289 290 290 290 289 289
299 297 298 297 295 294 293 293 293 292 292 292 292 292 292 292 292 292 292 292 292 291 290 290 289 290 290 290 290 291 290 290 290 290 289 289 289 289 289 289 289 290 290 290
295 294 294 293 293 293 292 291 291 291 291 292 292 292 292 292 292 292 292 291 290 290 290 289 289 289 289 289 289 290 290 290 290 289 289 289 289 289 289 289 289 289 289 289
294 294 293 292 292 291 291 291 291 291 291 291 291 291 291 291 291 291 290 290 290 290 289 289 289 289 289 289 289 289 289 289 289 289 289 289 289 289 289 289 289 289 289 289
Wind_Speed
2 6 2 4 2 3 1 2 4 1 2 4 6 9 9 5 3 7 11 10 7 5 3 3 2 1 2 3 4 4 6 7 7 6 6 6 7 9 8 9 11 10 11 10
4 2 4 3 1 1 1 4 2 0 1 5 9 14 8 4 5 8 9 9 7 6 5 3 3 3 4 3 3 4 5 7 7 7 9 10 12 12 13 13 12 11 11 13
2 6 3 2 1 1 1 5 4 5 10 6 9 8 8 7 8 8 7 7 6 6 5 3 3 2 2 1 2 4 6 7 8 9 9 10 9 9 9 10 13 12 13 13
5 3 1 2 1 3 3 3 4 7 7 4 3 4 10 11 9 9 10 9 6 5 4 4 4 4 2 2 2 3 5 6 8 8 9 9 8 9 11 12 13 14 12 13
3 2 1 2 3 3 5 3 5 4 7 7 7 4 6 11 10 12 12 9 6 5 5 6 5 4 4 4 4 3 5 6 7 7 7 8 8 8 10 11 13 12 12 12
4 2 2 4 2 2 1 4 4 2 2 4 5 3 7 7 12 13 11 8 6 6 6 5 5 4 3 4 4 4 5 6 7 7 7 8 9 9 10 12 12 14 14 15
4 3 3 1 2 3 2 4 2 2 2 2 3 4 7 6 3 4 10 8 7 6 5 4 3 2 1 2 4 4 5 5 6 6 6 7 8 9 11 13 14 16 16 17
3 3 1 2 3 3 3 3 2 4 4 6 3 6 2 6 4 6 7 7 6 4 3 2 1 2 3 4 4 4 3 3 3 5 7 9 11 12 13 15 16 17 19 20
2 3 4 3 1 2 3 3 2 4 3 4 6 5 7 6 8 10 10 9 8 6 5 3 2 5 6 6 7 6 4 5 6 7 7 9 11 13 16 18 20 21 22 23
2 3 1 3 1 1 3 1 3 3 3 5 7 7 6 6 6 6 8 9 5 4 3 4 6 9 10 11 11 10 9 8 8 9 10 12 13 15 17 20 21 23 24 24
0 1 4 2 7 4 3 2 3 3 4 4 5 2 5 5 1 9 10 9 4 2 6 8 10 11 9 11 11 10 9 8 9 11 14 16 19 20 21 21 22 24 25 26
2 3 5 3 4 3 3 5 8 4 5 4 4 6 2 4 4 6 8 8 7 11 16 18 16 14 12 10 8 6 7 9 12 15 19 22 24 24 23 23 24 25 27 26
4 4 2 4 3 2 5 7 8 2 3 8 9 3 4 9 5 6 4 6 12 18 19 17 13 11 11 11 11 10 10 12 14 18 22 25 26 24 24 26 28 27 26 26
3 2 7 9 6 1 5 8 11 11 4 13 16 22 12 11 7 13 10 10 13 12 12 11 8 7 9 11 14 15 15 15 17 20 25 26 26 25 25 26 26 26 26 27
3 4 10 15 16 15 16 16 15 15 18 14 20 21 17 17 12 10 7 8 9 10 10 10 11 13 16 18 21 22 22 21 22 23 24 25 26 25 26 26 26 26 26 26
5 3 1 5 14 17 20 18 21 22 23 25 24 24 7 6 5 5 9 13 15 14 13 15 17 20 22 24 27 26 28 29 29 28 27 26 28 26 25 25 26 27 28 28
5 3 2 6 3 7 10 18 21 18 19 15 14 4 5 4 7 11 14 17 18 17 18 23 24 26 29 32 33 34 29 28 30 28 27 27 26 25 24 25 26 27 28 26
6 3 3 5 3 7 3 4 1 5 3 2 4 1 4 7 12 14 18 18 17 18 25 32 31 32 33 34 33 30 31 30 31 30 28 25 22 23 25 25 26 26 24 24
11 9 4 4 8 14 12 4 1 2 4 2 2 3 8 13 21 17 12 19 22 26 30 31 32 32 34 34 35 36 34 34 31 30 29 26 24 24 25 26 27 28 26 28
4 11 7 5 5 6 5 6 4 1 10 6 3 8 13 18 13 13 25 26 26 27 28 31 32 32 32 34 33 32 33 32 27 27 26 25 25 27 29 29 30 32 31 32
4 5 13 12 9 7 6 4 2 5 3 4 10 14 17 14 19 28 23 21 20 22 23 24 25 26 27 27 27 27 27 23 25 26 27 30 35 34 33 31 32 32 31 29
8 7 5 7 9 13 6 2 3 10 15 15 16 18 19 22 21 22 22 22 22 23 26 27 28 30 30 29 27 26 26 29 27 28 29 32 35 34 32 32 35 37 35 33
4 5 3 6 1 4 3 6 5 10 15 17 20 23 22 23 24 26 26 27 27 26 27 31 32 34 35 33 31 31 30 29 31 31 33 35 34 34 33 32 34 35 34 32
4 2 3 3 2 9 15 17 18 15 17 22 21 22 23 26 29 30 30 30 30 31 34 36 37 37 36 35 35 35 34 32 33 34 33 35 34 34 33 32 32 32 33 32
2 5 3 7 11 13 10 10 15 21 22 24 25 26 28 28 30 31 32 32 33 36 38 39 38 37 37 37 37 37 36 36 35 35 35 34 33 34 34 34 34 35 36 35
7 7 7 7 7 9 14 15 17 21 25 27 29 29 29 29 31 29 31 34 37 40 40 40 40 40 39 38 36 36 37 35 34 34 34 34 34 34 33 32 35 36 36 38
Wind_Direction
170 222 202 73 22 13 15 281 279 110 59 297 254 276 285 339 248 174 158 158 155 151 134 115 96 26 17 1 341 344 339 345 343 339 338 328 319 326 321 308 314 318 311 318
195 172 100 85 23 360 342 293 270 194 88 300 294 285 296 181 128 148 156 153 162 156 147 119 105 79 70 52 357 333 328 336 339 335 327 321 317 314 311 318 320 320 318 312
190 98 128 233 157 274 62 312 11 321 319 245 296 252 164 169 162 156 160 157 160 165 157 135 119 92 68 28 348 342 341 341 336 333 330 327 328 323 318 304 315 315 319 318
76 116 195 183 136 320 249 33 330 315 326 307 1 297 185 167 179 183 170 174 170 160 134 113 109 81 61 45 26 8 355 351 345 339 335 331 331 323 314 319 321 325 322 317
95 164 172 206 53 339 50 353 317 313 292 312 184 246 112 168 197 193 183 176 164 147 131 110 101 94 85 75 65 40 15 3 358 356 355 353 346 339 337 331 334 333 333 333
91 85 343 35 88 30 87 275 257 275 273 251 130 240 182 180 217 192 177 178 155 132 119 108 103 86 59 51 38 16 1 356 347 343 346 347 347 348 347 347 348 345 345 343
155 135 115 358 233 162 264 285 299 233 215 288 95 261 285 84 56 185 170 169 151 139 131 123 120 97 13 354 348 335 328 330 333 342 348 351 350 347 346 344 341 339 338 336
205 193 164 29 34 7 4 339 300 281 310 334 155 244 98 72 99 112 144 151 143 131 126 135 197 296 308 314 310 320 316 325 332 340 342 341 339 339 338 335 333 332 329 326
283 151 121 61 52 295 129 217 62 288 204 261 243 220 140 164 165 167 161 162 160 168 172 191 255 272 265 262 269 268 282 301 312 317 324 328 329 331 329 327 323 318 316 314
79 254 164 110 226 99 272 78 194 205 256 254 224 242 271 191 189 187 178 172 141 77 24 311 284 279 271 264 265 264 273 288 302 315 322 322 323 322 320 318 316 314 313 313
308 271 117 174 203 194 152 212 225 302 282 289 305 293 47 76 187 206 208 186 180 315 321 313 290 277 264 260 260 263 276 291 304 317 321 321 320 320 318 316 313 310 310 310
88 320 264 289 74 359 300 250 234 230 185 238 282 277 79 60 54 351 263 199 261 297 309 307 295 281 263 258 258 270 287 297 305 314 318 319 318 316 313 310 308 308 308 307
162 181 250 193 170 180 238 216 234 223 317 247 254 262 135 134 126 92 346 276 282 303 310 309 296 272 262 264 271 281 293 300 305 315 313 313 312 310 307 307 306 304 302 303
180 254 246 262 334 122 210 216 221 215 211 259 241 265 241 243 300 359 347 318 311 314 321 325 315 287 272 272 278 284 290 295 298 303 307 308 308 303 300 302 299 298 299 300
212 212 255 265 278 287 270 263 249 226 240 255 273 276 296 320 353 350 0 342 321 316 314 313 306 299 291 291 288 284 285 288 295 295 292 295 298 296 295 298 297 298 297 296
189 232 73 262 263 262 269 268 259 252 256 261 272 277 9 41 29 3 337 325 316 310 310 313 309 306 303 296 290 285 282 285 289 287 288 294 296 290 290 290 294 294 295 295
193 194 207 270 88 310 275 249 243 255 254 256 267 342 6 334 329 324 320 310 307 303 305 308 306 303 301 299 296 291 285 286 288 284 286 289 288 282 285 287 287 291 294 295
215 193 245 277 303 250 84 65 318 267 358 342 270 308 325 311 306 307 303 298 302 307 309 309 303 301 300 300 296 291 289 289 289 288 288 287 285 285 286 286 287 290 289 287
231 235 244 250 237 286 289 108 2 308 196 167 260 287 312 315 311 299 313 331 315 306 304 303 301 299 300 299 295 291 288 290 287 290 289 291 290 286 284 283 285 289 289 290
222 231 221 213 257 276 92 106 57 296 276 122 331 310 315 319 306 308 325 313 307 305 305 306 305 304 304 302 299 295 291 289 288 289 292 288 287 287 286 286 288 292 290 289
156 197 216 226 243 265 113 101 90 254 13 307 305 297 301 295 294 302 311 309 307 308 310 312 310 306 307 309 307 297 293 288 289 289 288 294 300 295 290 286 287 288 289 285
184 189 198 229 249 256 98 132 287 347 315 308 307 305 299 295 298 303 307 309 310 309 309 310 307 305 304 302 300 295 288 290 288 289 289 292 294 295 288 284 290 292 292 288
227 237 247 219 40 93 296 290 310 305 300 303 301 300 293 290 291 295 298 299 301 298 300 302 299 299 297 295 294 291 288 288 290 292 293 295 288 284 282 278 278 282 285 283
214 256 245 281 182 318 323 317 309 312 305 305 300 297 292 289 291 291 292 294 296 297 300 301 300 298 296 294 292 286 285 287 289 287 287 286 282 284 284 281 279 277 275 274
22 163 227 274 283 287 287 307 308 305 302 299 295 293 290 289 287 288 288 292 294 295 297 298 296 294 292 293 292 289 289 290 288 289 288 285 283 281 279 279 277 275 274 272
203 233 232 259 301 289 290 298 299 296 296 295 292 289 288 286 283 285 290 292 292 294 296 296 293 292 291 291 291 288 286 289 292 291 287 281 281 282 280 280 281 282 280 278